FW7989 Weather Reports


time (UTC)temp
F
wind
direction
speed
knots
gust
knots
rain 1hr
in
rain 24hr
in
rain mn
in
humidity
%
barometer
mb
20260905022600 60 334 6.1 11.3 0.00 0.07 0.00 78 1021.5
20260905022058 61 342 6.1 11.3 0.00 0.07 0.00 78 1021.5
20260905021610 61 335 5.2 12.2 0.00 0.07 0.00 78 1021.3
20260905021059 61 303 6.1 12.2 0.00 0.07 0.00 79 1021.4
20260905020601 61 311 4.3 11.3 0.00 0.07 0.00 80 1021.4
20260905015558 61 334 5.2 9.6 0.00 0.07 0.00 79 1021.2
20260905015058 61 285 5.2 9.6 0.00 0.07 0.00 78 1021.2
20260905014604 61 334 4.3 10.4 0.00 0.07 0.00 78 1021.0
20260905014058 61 327 5.2 10.4 0.00 0.07 0.00 78 1021.0
20260905013558 61 294 5.2 10.4 0.00 0.07 0.00 78 1021.1
20260905013104 61 296 4.3 11.3 0.00 0.07 0.00 77 1021.1
20260905012600 61 316 5.2 11.3 0.00 0.07 0.00 77 1021.0
20260905012058 61 294 4.3 8.7 0.00 0.07 0.00 78 1020.9
20260905011604 61 306 2.6 8.7 0.00 0.07 0.00 78 1020.9
20260905011100 61 316 4.3 8.7 0.00 0.07 0.00 78 1020.9
20260905010558 61 346 4.3 9.6 0.00 0.07 0.00 77 1020.9
20260905010110 61 295 5.2 9.6 0.00 0.07 0.00 77 1020.7
20260905005558 61 333 4.3 9.6 0.00 0.07 0.00 77 1021.0
20260905005058 62 317 3.5 11.3 0.00 0.07 0.00 77 1021.0
20260905004608 62 332 5.2 11.3 0.00 0.07 0.00 77 1020.8
20260905004058 62 295 6.1 12.2 0.00 0.07 0.00 76 1020.8
20260905003558 62 306 4.3 12.2 0.00 0.07 0.00 76 1020.9
20260905003102 62 325 5.2 11.3 0.00 0.07 0.00 76 1020.8
20260905002559 62 360 4.3 12.2 0.00 0.07 0.00 76 1020.9
20260905002101 62 309 5.2 12.2 0.00 0.07 0.00 76 1020.8
20260905001603 63 290 6.1 12.2 0.00 0.07 0.00 76 1020.7
20260905001058 63 288 5.2 10.4 0.00 0.07 0.00 76 1020.7
20260905000558 63 299 4.3 10.4 0.00 0.07 0.00 75 1020.6
20260905000109 63 294 5.2 9.6 0.00 0.07 0.00 75 1020.6
20260904235558 63 273 4.3 9.6 0.00 0.07 0.00 75 1020.6
20260904235100 63 319 4.3 12.2 0.00 0.07 0.00 76 1020.5
20260904234611 63 288 7.0 12.2 0.00 0.07 0.00 76 1020.5
20260904234100 63 281 4.3 13.0 0.00 0.07 0.00 75 1020.6
20260904233558 63 311 7.0 13.0 0.00 0.07 0.00 75 1020.5
20260904233107 63 360 4.3 7.8 0.00 0.07 0.00 76 1020.5
20260904232559 63 304 3.5 7.0 0.00 0.07 0.00 76 1020.5
20260904232058 63 306 3.5 11.3 0.00 0.07 0.00 76 1020.5
20260904231608 63 289 5.2 11.3 0.00 0.07 0.00 75 1020.5
20260904231058 63 315 5.2 11.3 0.00 0.07 0.00 75 1020.4
20260904230559 63 298 4.3 13.0 0.00 0.07 0.00 75 1020.5
20260904230113 63 360 5.2 14.8 0.00 0.07 0.00 75 1020.4
20260904225559 63 294 7.8 14.8 0.00 0.07 0.07 73 1020.4
20260904225059 63 302 8.7 13.9 0.00 0.07 0.07 74 1020.5
20260904224606 63 288 7.8 14.8 0.00 0.07 0.07 74 1020.4
20260904224101 63 305 7.8 14.8 0.00 0.07 0.07 73 1020.4
20260904223558 63 293 8.7 14.8 0.00 0.07 0.07 73 1020.3
20260904223104 63 274 7.8 14.8 0.00 0.07 0.07 73 1020.4
20260904222559 63 305 7.8 18.2 0.00 0.07 0.07 73 1020.4
20260904222057 63 296 8.7 18.2 0.00 0.07 0.07 73 1020.4
20260904221609 63 283 10.4 18.2 0.00 0.07 0.07 73 1020.4
20260904221057 63 352 9.6 13.9 0.00 0.07 0.07 73 1020.3
20260904220601 63 294 7.8 13.0 0.00 0.07 0.07 74 1020.4
20260904220109 63 308 7.8 12.2 0.00 0.07 0.07 73 1020.3
20260904215558 63 360 7.8 13.0 0.00 0.07 0.07 72 1020.2
20260904215058 63 360 7.8 14.8 0.00 0.07 0.07 73 1020.3
20260904214603 63 289 5.2 14.8 0.00 0.07 0.07 73 1020.2
20260904214101 63 294 7.8 15.6 0.00 0.07 0.07 74 1020.2
20260904213558 63 300 7.8 15.6 0.00 0.07 0.07 74 1020.1
20260904213104 63 303 7.8 14.8 0.00 0.07 0.07 74 1020.1
20260904212558 63 280 7.8 14.8 0.00 0.07 0.07 73 1020.1
20260904212058 63 286 7.0 13.0 0.00 0.07 0.07 73 1020.0
20260904211607 63 292 8.7 15.6 0.00 0.07 0.07 72 1019.9
20260904211057 63 276 7.0 17.4 0.00 0.07 0.07 74 1020.0
20260904210558 63 249 8.7 17.4 0.00 0.07 0.07 73 1019.8
20260904210105 63 284 8.7 17.4 0.00 0.07 0.07 72 1019.8
20260904205559 63 330 8.7 15.6 0.00 0.07 0.07 73 1019.8
20260904205058 62 295 7.8 14.8 0.00 0.07 0.07 73 1019.7
20260904204609 62 298 8.7 14.8 0.00 0.07 0.07 73 1019.6
20260904204058 62 298 8.7 15.6 0.00 0.07 0.07 72 1019.6
20260904203559 63 282 9.6 15.6 0.00 0.07 0.07 73 1019.5
20260904203102 63 284 8.7 15.6 0.00 0.07 0.07 73 1019.7
20260904202558 63 298 7.8 15.6 0.00 0.07 0.07 74 1019.6
20260904202057 63 278 8.7 13.9 0.00 0.07 0.07 74 1019.6
20260904201603 63 294 8.7 13.9 0.00 0.07 0.07 74 1019.6
20260904201058 63 257 8.7 16.5 0.00 0.07 0.07 73 1019.5
20260904200600 63 314 7.0 16.5 0.00 0.07 0.07 74 1019.4
20260904200116 62 350 8.7 16.5 0.00 0.07 0.07 73 1019.4
20260904195558 62 253 8.7 14.8 0.00 0.07 0.07 73 1019.4
20260904195057 63 292 7.8 14.8 0.00 0.07 0.07 74 1019.4
20260904194609 62 302 7.0 14.8 0.00 0.07 0.07 74 1019.3
20260904194058 62 301 8.7 13.9 0.00 0.07 0.07 73 1019.3
20260904193603 63 255 8.7 13.9 0.00 0.07 0.07 74 1019.4
20260904193101 63 272 7.0 13.9 0.00 0.07 0.07 74 1019.2
20260904192557 63 293 8.7 18.2 0.00 0.07 0.07 73 1019.2
20260904192057 63 311 9.6 18.2 0.00 0.07 0.07 74 1019.1
20260904191603 63 277 10.4 16.5 0.00 0.07 0.07 74 1019.0
20260904191058 63 298 8.7 18.2 0.00 0.07 0.07 72 1019.1
20260904190558 63 294 8.7 19.1 0.00 0.07 0.07 72 1019.1
20260904190110 63 254 10.4 19.1 0.00 0.07 0.07 73 1019.0
20260904185557 63 279 10.4 19.1 0.00 0.07 0.07 73 1019.0
20260904185057 63 295 8.7 13.0 0.00 0.07 0.07 74 1018.9
20260904184626 63 360 8.7 16.5 0.00 0.07 0.07 73 1018.9
20260904184058 63 279 9.6 16.5 0.00 0.07 0.07 72 1018.9
20260904183558 63 309 10.4 16.5 0.00 0.07 0.07 72 1019.1
20260904183101 63 350 9.6 20.9 0.00 0.07 0.07 71 1019.0
20260904182600 64 296 12.2 20.9 0.00 0.07 0.07 71 1018.9
20260904182057 64 290 8.7 13.9 0.00 0.07 0.07 71 1018.8
20260904181607 64 360 6.1 18.2 0.00 0.07 0.07 73 1018.7
20260904181100 64 261 7.8 18.2 0.00 0.07 0.07 72 1018.7
20260904180601 65 304 12.2 18.2 0.00 0.07 0.07 71 1018.7
20260904180109 65 269 9.6 17.4 0.00 0.07 0.07 71 1018.7
20260904175600 65 236 7.8 14.8 0.00 0.07 0.07 71 1018.6
20260904175100 65 310 8.7 16.5 0.00 0.07 0.07 70 1018.6
20260904174608 65 295 7.8 16.5 0.00 0.07 0.07 71 1018.5
20260904174056 64 302 10.4 16.5 0.00 0.07 0.07 71 1018.3
20260904173558 64 268 8.7 14.8 0.00 0.07 0.07 73 1018.3
20260904173109 64 268 9.6 14.8 0.00 0.07 0.07 72 1018.4
20260904172601 64 292 8.7 15.6 0.00 0.07 0.07 71 1018.5
20260904172059 64 290 7.8 15.6 0.00 0.07 0.07 73 1018.5
20260904171608 64 288 7.8 15.6 0.00 0.07 0.07 72 1018.6
20260904171058 64 263 6.1 20.0 0.00 0.07 0.07 72 1018.4
20260904170600 64 262 5.2 20.9 0.00 0.07 0.07 70 1018.2
20260904170110 64 322 10.4 20.9 0.00 0.07 0.07 71 1018.3
20260904165557 64 275 9.6 20.9 0.00 0.07 0.07 71 1018.2
20260904165058 64 287 9.6 20.9 0.00 0.07 0.07 72 1018.3
20260904164607 64 329 8.7 15.6 0.00 0.07 0.07 71 1018.3
20260904164102 64 319 8.7 19.1 0.00 0.07 0.07 71 1018.1
20260904163558 64 251 7.8 19.1 0.00 0.07 0.07 70 1018.1
20260904163102 64 281 8.7 17.4 0.00 0.07 0.07 71 1017.9
20260904162558 64 314 9.6 17.4 0.00 0.07 0.07 72 1017.9
20260904162058 64 269 7.0 17.4 0.00 0.07 0.07 72 1018.0
20260904161613 64 296 7.0 17.4 0.00 0.07 0.07 71 1017.9
20260904161100 64 265 8.7 15.6 0.00 0.07 0.07 71 1018.0
20260904160600 64 275 8.7 16.5 0.00 0.07 0.07 72 1017.9
20260904160107 64 297 9.6 16.5 0.00 0.07 0.07 70 1017.8
20260904155559 64 293 9.6 15.6 0.00 0.07 0.07 71 1018.0
20260904155100 64 283 8.7 18.2 0.00 0.07 0.07 71 1017.9
20260904154620 64 303 10.4 18.2 0.00 0.07 0.07 72 1017.9
20260904154058 65 295 8.7 17.4 0.00 0.07 0.07 72 1017.8
20260904153559 65 273 10.4 17.4 0.00 0.07 0.07 69 1017.8
20260904153108 65 277 8.7 16.5 0.00 0.07 0.07 70 1017.8
20260904152557 65 293 10.4 17.4 0.00 0.07 0.07 70 1017.8
20260904152059 65 257 10.4 20.9 0.00 0.07 0.07 70 1017.8
20260904151608 65 288 12.2 20.9 0.00 0.07 0.07 70 1017.8
20260904151100 65 299 8.7 17.4 0.00 0.07 0.07 71 1017.8
20260904150604 65 255 9.6 17.4 0.00 0.07 0.07 70 1017.6
20260904145557 65 329 9.6 17.4 0.00 0.07 0.07 71 1017.8
20260904145058 65 272 9.6 17.4 0.00 0.07 0.07 71 1017.6
20260904144603 65 271 10.4 18.2 0.00 0.07 0.07 69 1017.8
20260904144100 65 311 11.3 18.2 0.00 0.07 0.07 70 1017.7
20260904143601 65 303 10.4 18.2 0.00 0.07 0.07 70 1017.5
20260904143107 65 246 8.7 17.4 0.00 0.07 0.07 71 1017.4
20260904142558 65 268 11.3 17.4 0.00 0.07 0.07 68 1017.4
20260904142058 66 290 10.4 17.4 0.00 0.07 0.07 69 1017.5
20260904141605 66 348 11.3 20.0 0.00 0.07 0.07 68 1017.4
20260904141100 66 295 12.2 20.0 0.00 0.07 0.07 71 1017.3
20260904140600 66 258 8.7 17.4 0.00 0.07 0.07 70 1017.2
20260904140111 66 269 11.3 20.0 0.00 0.07 0.07 68 1017.1
20260904135559 66 289 10.4 20.0 0.00 0.07 0.07 70 1017.1
20260904135059 66 288 8.7 20.0 0.00 0.07 0.07 70 1017.0
20260904134616 65 278 10.4 18.2 0.00 0.07 0.07 68 1017.0
20260904134103 65 264 9.6 19.1 0.00 0.07 0.07 69 1016.9
20260904133600 65 295 9.6 19.1 0.00 0.07 0.07 69 1017.0
20260904133106 66 290 10.4 20.0 0.00 0.07 0.07 70 1017.0
20260904132557 66 284 10.4 20.0 0.00 0.07 0.07 69 1016.9
20260904132059 66 307 10.4 20.9 0.00 0.07 0.07 69 1016.9
20260904131605 65 317 13.0 21.7 0.00 0.07 0.07 68 1016.8
20260904131058 65 306 11.3 21.7 0.00 0.07 0.07 68 1016.8
20260904130559 65 271 9.6 19.1 0.00 0.07 0.07 72 1016.8
20260904130106 65 300 11.3 19.1 0.00 0.07 0.07 73 1016.7
20260904125559 66 308 8.7 20.9 0.00 0.07 0.07 72 1016.7
20260904125100 65 287 9.6 20.9 0.00 0.07 0.07 71 1016.7
20260904124617 65 304 13.0 20.9 0.00 0.07 0.07 71 1016.7
20260904124101 65 279 12.2 19.1 0.00 0.07 0.07 71 1016.6
20260904123600 65 296 11.3 18.2 0.00 0.07 0.07 70 1016.5
20260904123116 65 275 11.3 18.2 0.00 0.07 0.07 70 1016.6
20260904122559 65 295 11.3 18.2 0.00 0.07 0.07 69 1016.5
20260904122059 65 271 10.4 19.1 0.00 0.07 0.07 70 1016.6
20260904121607 65 267 9.6 19.1 0.00 0.07 0.07 69 1016.4
20260904121103 65 285 9.6 17.4 0.00 0.07 0.07 69 1016.3
20260904120559 65 265 9.6 21.7 0.00 0.07 0.07 70 1016.4
20260904120109 65 284 9.6 21.7 0.00 0.07 0.07 70 1016.2
20260904115602 65 285 12.2 20.0 0.00 0.07 0.07 70 1016.2
20260904115102 65 325 9.6 19.1 0.00 0.07 0.07 71 1016.1
20260904114606 65 302 8.7 19.1 0.00 0.07 0.07 70 1016.0
20260904114100 65 286 10.4 20.0 0.00 0.07 0.07 69 1016.2
20260904113559 65 275 11.3 20.0 0.00 0.07 0.07 69 1016.1
20260904113104 65 300 9.6 20.0 0.00 0.07 0.07 71 1015.9
20260904112559 65 295 12.2 20.9 0.00 0.07 0.07 72 1015.8
20260904112059 65 304 11.3 20.9 0.00 0.07 0.07 71 1015.9
20260904111609 65 290 11.3 21.7 0.00 0.07 0.07 70 1015.9
20260904111104 65 265 12.2 21.7 0.00 0.07 0.07 71 1015.8
20260904110600 65 273 9.6 20.0 0.00 0.07 0.07 70 1015.5
20260904110117 65 276 10.4 19.1 0.00 0.07 0.07 69 1015.4
20260904105601 65 296 12.2 22.6 0.00 0.07 0.07 71 1015.7
20260904105101 65 264 7.8 22.6 0.00 0.07 0.07 72 1015.5
20260904104608 65 309 9.6 16.5 0.00 0.07 0.07 72 1015.5
20260904104100 65 279 10.4 16.5 0.00 0.07 0.07 73 1015.3
20260904103600 65 267 9.6 17.4 0.00 0.07 0.07 73 1015.1
20260904103107 65 288 9.6 18.2 0.00 0.07 0.07 75 1014.9
20260904102602 65 287 10.4 20.0 0.00 0.07 0.07 75 1015.1
20260904102100 65 294 10.4 20.0 0.00 0.07 0.07 76 1015.2
20260904101609 66 265 10.4 20.0 0.00 0.07 0.07 77 1015.1
20260904101058 66 257 7.8 14.8 0.00 0.07 0.07 79 1015.2
20260904100600 66 319 9.6 18.2 0.00 0.07 0.07 78 1015.0
20260904100109 65 289 7.8 18.2 0.00 0.07 0.07 82 1014.9
20260904095557 65 289 8.7 18.2 0.00 0.07 0.07 81 1014.8
20260904095058 65 278 8.7 15.6 0.00 0.07 0.07 79 1014.9
20260904094615 65 288 9.6 15.6 0.00 0.07 0.07 81 1014.9
20260904094101 65 207 7.0 16.5 0.00 0.07 0.07 84 1015.0
20260904093603 65 242 7.8 16.5 0.00 0.07 0.07 84 1014.9
20260904093109 65 300 7.0 18.2 0.00 0.07 0.07 84 1014.7
20260904092600 65 279 7.0 19.1 0.00 0.07 0.07 82 1014.7
20260904092059 65 307 9.6 19.1 0.00 0.07 0.07 83 1014.8
20260904091603 65 273 10.4 18.2 0.00 0.07 0.07 84 1014.5
20260904091100 65 294 9.6 18.2 0.00 0.07 0.07 84 1014.4
20260904090559 65 279 8.7 16.5 0.00 0.07 0.07 85 1014.3
20260904090108 65 287 9.6 16.5 0.00 0.07 0.07 84 1014.2
20260904085558 65 275 9.6 20.0 0.00 0.07 0.07 84 1014.1
20260904085136 65 292 10.4 20.0 0.00 0.07 0.07 84 1014.3
20260904084604 65 279 10.4 19.1 0.01 0.07 0.07 84 1014.2
20260904084059 65 360 8.7 17.4 0.01 0.07 0.07 86 1014.1
20260904083559 64 287 10.4 17.4 0.01 0.07 0.07 86 1013.9
20260904083148 64 296 9.6 17.4 0.01 0.07 0.07 87 1014.0
20260904082558 64 270 8.7 17.4 0.01 0.07 0.07 89 1013.8
20260904082101 63 274 9.6 19.1 0.01 0.07 0.07 89 1013.9
20260904081609 63 275 9.6 19.1 0.01 0.07 0.07 90 1013.9
20260904081057 63 298 9.6 17.4 0.01 0.07 0.07 91 1014.0
20260904080558 63 296 9.6 15.6 0.02 0.07 0.07 91 1013.9
20260904080106 63 318 9.6 18.2 0.02 0.07 0.07 91 1013.8
20260904075559 62 299 10.4 18.2 0.02 0.07 0.07 91 1013.8
20260904075057 63 263 11.3 18.2 0.01 0.07 0.06 90 1013.9
20260904074603 63 290 8.7 20.0 0.00 0.06 0.05 91 1013.8
20260904074058 63 297 10.4 20.0 0.00 0.06 0.05 91 1013.8
20260904073558 63 300 9.6 19.1 0.00 0.06 0.05 91 1013.9
20260904073108 63 297 10.4 20.0 0.00 0.06 0.05 90 1013.8
20260904072557 63 292 11.3 21.7 0.00 0.06 0.05 90 1013.7
20260904072058 63 305 13.0 21.7 0.00 0.06 0.05 90 1013.5
20260904071624 63 308 13.0 20.9 0.00 0.06 0.05 91 1013.7
20260904071100 63 299 12.2 23.5 0.00 0.06 0.05 90 1013.6
20260904070600 63 298 13.0 23.5 0.00 0.05 0.04 90 1013.3
20260904070118 63 278 13.0 22.6 0.00 0.05 0.04 90 1013.4
20260904065602 63 266 13.0 22.6 0.00 0.05 0.04 89 1013.4
20260904065059 63 315 10.4 20.9 0.00 0.05 0.04 91 1013.2
20260904064604 63 294 12.2 20.9 0.00 0.05 0.04 90 1013.0
20260904064059 63 282 10.4 22.6 0.00 0.05 0.04 90 1013.1
20260904063602 63 277 9.6 22.6 0.00 0.05 0.04 90 1013.1
20260904063109 63 294 9.6 19.1 0.00 0.05 0.04 90 1012.9
20260904062559 63 315 11.3 20.9 0.00 0.05 0.04 90 1013.1
20260904062058 63 308 9.6 21.7 0.01 0.05 0.04 90 1012.9
20260904061611 63 277 11.3 22.6 0.01 0.05 0.04 90 1012.8
20260904061101 63 277 14.8 22.6 0.01 0.05 0.04 90 1012.9
20260904060603 63 283 12.2 24.3 0.03 0.05 0.04 91 1012.9
20260904060110 63 310 13.9 24.3 0.04 0.05 0.04 90 1012.8
20260904055557 63 297 13.0 22.6 0.03 0.04 0.03 90 1012.9
20260904055057 64 290 14.8 22.6 0.03 0.04 0.03 90 1012.8
20260904054637 64 283 12.2 22.6 0.03 0.04 0.03 90 1012.7
20260904054101 64 256 9.6 21.7 0.03 0.04 0.03 90 1012.7
20260904053600 64 273 11.3 21.7 0.03 0.04 0.03 90 1012.4
20260904053117 64 286 12.2 21.7 0.03 0.04 0.03 90 1012.3
20260904052557 64 278 8.7 19.1 0.03 0.04 0.03 90 1012.1
20260904052100 64 302 9.6 17.4 0.03 0.03 0.03 90 1012.0
20260904051627 65 288 9.6 25.2 0.03 0.03 0.03 89 1012.1
20260904051059 66 296 9.6 25.2 0.03 0.03 0.03 85 1012.0
20260904050557 69 250 7.8 13.9 0.00 0.01 0.00 85 1012.3
20260904050111 69 229 7.0 13.9 0.00 0.00 0.00 84 1011.2
20260904045557 69 217 7.0 12.2 0.00 0.00 0.00 84 1011.2
20260904045059 69 217 5.2 13.9 0.00 0.00 0.00 84 1011.3
20260904044615 69 229 7.0 13.9 0.00 0.00 0.00 83 1011.2
20260904044057 70 221 5.2 14.8 0.00 0.00 0.00 83 1011.2
20260904043559 70 234 8.7 14.8 0.00 0.00 0.00 83 1011.2
20260904043111 70 241 7.0 14.8 0.00 0.00 0.00 82 1011.2
20260904042603 70 229 10.4 14.8 0.00 0.00 0.00 82 1011.3
20260904042101 70 242 7.8 13.9 0.00 0.00 0.00 82 1011.3
20260904041608 70 239 6.1 14.8 0.00 0.00 0.00 82 1011.4
20260904041059 70 222 7.0 17.4 0.00 0.00 0.00 81 1011.2
20260904040559 70 272 8.7 17.4 0.00 0.00 0.00 81 1011.3
20260904040123 70 229 9.6 15.6 0.00 0.00 0.00 81 1011.4
20260904035600 70 262 7.8 13.0 0.00 0.00 0.00 82 1011.4
20260904035058 70 220 7.0 13.0 0.00 0.00 0.00 82 1011.4
20260904034611 70 231 6.1 13.0 0.00 0.00 0.00 82 1011.5
20260904034057 70 207 6.1 15.6 0.00 0.00 0.00 82 1011.3
20260904033602 70 225 7.0 15.6 0.00 0.00 0.00 82 1011.3
20260904033109 70 230 9.6 15.6 0.00 0.00 0.00 82 1011.5
20260904032559 70 219 8.7 13.9 0.00 0.00 0.00 82 1011.5
20260904032059 70 238 7.0 14.8 0.00 0.00 0.00 82 1011.6
20260904031611 70 242 8.7 14.8 0.00 0.00 0.00 82 1011.7
20260904031101 70 205 8.7 15.6 0.00 0.00 0.00 82 1011.8
20260904030558 70 237 8.7 16.5 0.00 0.00 0.00 82 1011.9
20260904030106 70 239 8.7 16.5 0.00 0.00 0.00 83 1011.7
20260904025559 69 212 7.8 16.5 0.00 0.00 0.00 83 1011.8
20260904025059 69 213 7.8 16.5 0.00 0.00 0.00 83 1011.8
20260904024600 69 204 7.0 13.0 0.00 0.00 0.00 84 1011.8
20260904024100 69 281 7.0 14.8 0.00 0.00 0.00 85 1011.7
20260904023559 69 194 7.8 14.8 0.00 0.00 0.00 85 1011.7
20260904023109 69 231 7.0 13.0 0.00 0.00 0.00 85 1011.7